Погода в Слуцке

Погода в Слуцке : погода сейчас, прогноз погоды и архив. Всё, что Вы хотите узнать о погоде в Слуцке!

Хотите узнать прогноз погоды в Слуцке? Тогда Вам сюда: Погода в Слуцке

Поиск расширенной информации на нашем сайте:

Другие новости

Новости СМИ2

Главная страница сайта

Новости сайта

02.10.2013

Напоминаем, что на нашем новом сайте вы можете получить высокодетализированные прогнозы погоды по пунктам России, СНГ и мира (включающие важные для авиации метеовеличины, такие как направление и скорость ветра, видимость, явления погоды, количество и форма облачности, нижняя и верхняя граница облачности), а также ознакомиться с разнообразными материалами по авиационной метеорологии и подборкой полезных ссылок на эту тему.

Сайт Метеоцентр.Азия посвящён разработке технологий оптимизации авиаметеорологического обслуживания, включая проектирование и перспективное создание нескольких автоматизированных авиаметеорологических систем:
- система выпуска высокодетальных прогностических карт явлений погоды для нижнего воздушного пространства по России и ближнему зарубежью;
- система верификации прогнозов TAF (выпускаемых синоптиками официальных АМСГ РФ и ближнего зарубежья) и AUTOTAF (выпускаемых сайтом Метеоцентр.Азия) - выявление ошибок, онлайн-сопоставление с фактической погодой METAR, автоматическое внесение коррективов в прогнозы при резком отклонении фактической погоды от прогноза, подсчёт оправдываемости прогнозов по элементам и в целом;
- система обработки, анализа и отображения авиаметеорологической информации для применения провайдерами метеорологической информации.


Погода в Слуцке - сегодня

Время (UTC), дата Ветер
(°,м/с) 
Видим.   Явления Облачность Т
(°С)
Тd
(°С)
f(%) Тe
(°С)
Pmin
(гПа)
dP
(гПа)
Po
(мм)
O2
(г/м3)
Тmin Tmax R s Состояние
почвы
15 30.11.16 250 (З) 6{10}  1100 м  снег  10/10 100 м 
[Ns]
-1.5 -2 96 -5  1011.4  -2.5  743  301         
18 30.11.16 270 (З) 8{11}  6000 м  дымка{снег}  10/10 240 м 
[St]
-1 -2.3 91 -5  1010.3  -1  743  301    -0.8     
21 30.11.16 290 (З) 6{11}  6000 м  дымка  10/10 240 м 
[St]
-0.7 -1.7 93 -4  1009.8  -0.5  742  300           
00 01.12.16 270 (З) 5{10}  1300 м  снег  10/10 120 м 
[Ns]
-0.5 -1.1 96 -4  1008.9  -0.9  742  299           
03 01.12.16 270 (З) 3200 м  дымка{снег}  10/10 210 м 
[St]
-0.1 -0.4 98 -3  1008  -0.9  741  299      0.5   
06 01.12.16 270 (З) 3200 м  дымка  10/10 210 м 
[St]
+0 -0.6 96 -3  1007.3  -0.6  740  298  -1.2    0.5  равномерный
мокрый или
старый снег
100% 
09 01.12.16 280 (З) 2500 м  слаб. снег  10/10 210 м 
[Ns]
+0.7 -0.1 94 -2  1007  -0.2  740  297           
12 01.12.16 280 (З) 8000 м  дымка{снег}  8/5 600 м средняя 
[Sc|Ac trans]
-0.4 -1.9 90 -3  1005.6  -1.5  739  298           
15 01.12.16 260 (З) 9000 м  дымка  9/9 1000 м 
[Sc]
+0 -0.8 94 -2  1004.7  -0.9  738  298      0.6     
18 01.12.16 250 (З) 6000 м  дымка  10/0 средняя 
[As op]
-2.9 -3.6 95 -5  1003.3  -1.6  737  301    +1.2  0.6     
21 01.12.16 230 (ЮЗ) 10 км    9/4 600 м средняя 
[Sc|Ac und]
-2.3 -2.9 96 -3  1001.5  -1.7  736  299           
00 02.12.16 тихо ()   10 км    10/0 средняя 
[As op]
-2.3 -3.2 94 -2  999.3  -2.2  734  299           
03 02.12.16 010 (С) 7000 м  дымка  10/0 средняя 
[As op]
-2.2 -2.8 96 -2  998.3  -1  734  298         
06 02.12.16 100 (В) 0200 м  переохл. туман [диам. изморози 1 мм]  ?/?  
-2.9 -2.9 100 -2  998.8  0.5  734  299  -4      равномерный
сухой снег
100% 
09 02.12.16 040 (СВ) 10 км  {туман}  8/8 600 м 
[Sc]
-1.7 -3.6 87 -4  1001  2.2  736  299           
12 02.12.16 010 (С) 14000 м  {туман}  4/3 600 м верхняя 
[Sc|Ci sp]
-3 -4.7 88 -5  1002.6  1.6  737  301           
15 02.12.16 350 (С) 12000 м    9/9 750 м 
[Sc]
-4.3 -7 81 -6  1005  2.2  738  303           
18 02.12.16 280 (З) 11000 м    9/9 840 м 
[Sc]
-3.2 -5.3 85 -4  1006.1  1.2  739  302    -1.5       
21 02.12.16 200 (Ю) 8000 м  слаб. снег  9/9 660 м 
[Sc]
-3 -5 86 -3  1006.3  0.2  740  302           
00 03.12.16 180 (Ю) 10 км  {снег}  10/10 400 м 
[St]
-2.9 -4.6 88 -2  1006.4  0.1  740  302           
03 03.12.16 230 (ЮЗ) 8000 м  дымка  10/10 180 м 
[St]
-2.7 -3.7 93 -2  1006.9  0.5  740  302      0.2   
06 03.12.16 260 (З) 1200 м  снег  10/10 150 м 
[Ns]
-2.7 -3 98 -2  1008  741  302  -3    0.7  равномерный
сухой снег
100% 
09 03.12.16 350 (С) 10 км  в посл. час снег  9/9 600 м 
[Sc]
-1.8 -3.6 87 -6  1009.9  1.9  742  301           
12 03.12.16 340 (С) 14000 м  {снег}  9/9 960 м 
[Sc]
-1.5 -3.5 86 -5  1011.5  1.5  743  302           
15 03.12.16 350 (С) 6{11}  15000 м    8/8 600 м 
[Sc]
-3.5 -6.7 78 -8  1014.2  2.5  745  305      0.7     
Время (UTC), дата Ветер
(°,м/с) 
Видим.   Явления Облачность Т
(°С)
Тd
(°С)
f(%) Тe
(°С)
Pmin
(гПа)
dP
(гПа)
Po
(мм)
O2
(г/м3)
Тmin Tmax R s Состояние
почвы

Для получения пояснительной информации подведите курсор к названию столбца.

ПОГОДА в Слуцке - архив

Всё, что Вы хотите узнать о погоде в Слуцке - удобно и подробно!

Выберите нужную дату (начиная с 1 января 2015* года) и нажмите кнопку "Найти".
Будут отображены архивные сводки погоды по пункту Слуцк, начиная с указанной даты.


Отображать данные в формате CSV (для использования в таблицах Excel)


Внимание! Наш архив погоды предназначен исключительно для личного некоммерческого использования в познавательных целях. Если Вам необходимы официальные справки о состоянии погоды (для производственных, юридических, коммерческих и т.п. целей), обращайтесь в органы Росгидромета.

*Примечание: данная дата относится к архиву по метеостанциям СССР (Россия, СНГ, Балтия).
Архив по метеостанциям Зарубежной Европы и Азии (кроме Китая) хранится 10 дней, по другим регионам земного шара (Китай, Африка, Америка, Австралия, Океания) - 1 день.

Слуцк - район местоположения метеостанции


Название, широта, долгота, высота метеостанции:
Слуцк 53°ш. 27.6°д. 162 м над ур. моря [Беларусь]

Дополнительная информация

В oтличие oт бoльшинства пoгoдных сайтoв мы публикуем пoдрoбную метеoинфoрмацию в детальнoм прoфессиoнальнoм фoрмате.

Характеристики температуры и влажнoсти вoздуха измеряются на высoте 2 м в тени вдали oт зданий и деревьев.
Скoрoсть ветра измеряется на высoте 10 м (на урoвне рoста челoвека скoрoсть ветра ниже в 1.5-2 раза). Если метеoстанция нахoдится в гoрoде или в лесу, тo скoрoсть ветра занижена на 2-4 м/с пo сравнению с oткрытым местoм. Скoрoсть ветра над акватoриями крупных рек и oзёр, а также на вершинах хoлмoв на 2-5 м/с выше, чем в oбычных услoвиях.
Атмoсфернoе давление в разных тoчках местнoсти мoжет значительнo oтличаться oт давления на метеoстанции, в зависимoсти oт услoвий рельефа (при пoдъёме на 10 м давление пoнижается примернo на 1 мм рт.ст.).